Location: Lombard
(41.8800°N, 88.0080°W)
Time: 06:48:05
(UTC-05:00)

A-11 Canister half - Pass Details

Date: 28 April 2025
Orbit: 1514 x 1685 km, 47.2° (Epoch: 13 May)

Event Time Altitude Azimuth Distance (km) Brightness Sun altitude
Exits shadow 05:10:29 - 212° (SSW) 4,406 10.9 -7.9°
Reaches altitude 10° 05:12:51 10° 208° (SSW) 3,673 10.5 -7.5°
Maximum altitude 05:21:29 47° 138° (SE) 1,932 9.7 -6.1°
Drops below altitude 10° 05:30:10 10° 69° (ENE) 3,698 13.0 -4.6°
Sets 05:33:22 0° 64° (ENE) 4,698 14.7 -4.0°
